Latest Weather Observations for Camden

IDN60901

Issued at 8:35 pm EST Tuesday 30 September 2014 (issued every 10 minutes, with the page automatically refreshed every 10 minutes)

About weather observations | Map of Sydney area stations | Latest observations for Sydney area | Other Formats
Station Details ID: 068192 Name: CAMDEN AIRPORT AWS Lat: -34.04 Lon: 150.69 Height: 73.9 m
Data from the previous 72 hours. | See also: Recent months at Camden
Date/Time
EST
Tmp

°C
App
Tmp
°C
Dew
Point
°C
Rel
Hum
%
Delta-T

°C
Wind Press
QNH
hPa
Press
MSL
hPa
Rain
since
9 am
mm
Dir
 
Spd
km/h
Gust
km/h
Spd
kts
Gust
kts
30/08:30pm 22.3 19.4 4.8 32 8.7 WNW 9 13 5 7 1007.7 1007.6 0.0
30/08:00pm 24.4 20.4 4.7 28 9.9 N 15 17 8 9 1007.5 1007.4 0.0
30/07:30pm 24.9 20.5 4.6 27 10.2 N 17 32 9 17 1007.4 1007.3 0.0
30/07:00pm 26.7 21.6 3.9 23 11.5 N 20 33 11 18 1007.2 1007.1 0.0
30/06:30pm 26.3 21.4 4.1 24 11.1 NNW 19 22 10 12 1007.3 1007.2 0.0
30/06:00pm 28.3 22.7 3.2 20 12.6 NW 22 32 12 17 1007.2 1007.1 0.0
30/05:36pm 29.3 22.0 2.5 18 13.3 NW 30 48 16 26 1007.0 1006.9 0.0
30/05:30pm 29.5 22.2 2.7 18 13.4 NW 30 46 16 25 1006.8 1006.7 0.0
30/05:13pm 30.0 21.6 1.5 16 14.0 WNW 35 54 19 29 1007.0 1006.9 0.0
30/05:00pm 30.3 22.6 2.5 17 14.0 WNW 32 48 17 26 1007.1 1007.0 0.0
30/04:33pm 31.1 24.2 2.3 16 14.5 WNW 28 48 15 26 1007.1 1007.0 0.0
30/04:30pm 31.3 24.4 2.5 16 14.5 WNW 28 43 15 23 1007.1 1007.0 0.0
30/04:00pm 31.8 24.4 3.8 17 14.5 WNW 32 44 17 24 1007.0 1006.9 0.0
30/03:30pm 32.0 25.5 4.7 18 14.3 NW 28 48 15 26 1007.0 1006.9 0.0
30/03:00pm 32.5 24.6 4.3 17 14.8 NW 35 54 19 29 1007.1 1007.0 0.0
30/02:32pm 32.5 24.6 4.3 17 14.8 WNW 35 54 19 29 1007.5 1007.4 0.0
30/02:30pm 32.4 24.1 4.2 17 14.7 NW 37 54 20 29 1007.4 1007.3 0.0
30/02:00pm 32.4 23.2 3.4 16 15.0 NW 41 61 22 33 1008.0 1007.9 0.0
30/01:33pm 32.8 25.2 3.7 16 15.1 NW 33 56 18 30 1008.5 1008.5 0.0
30/01:30pm 32.9 25.6 4.6 17 14.9 NW 32 43 17 23 1008.5 1008.5 0.0
30/01:00pm 32.6 24.9 5.2 18 14.6 NW 35 54 19 29 1009.0 1009.0 0.0
30/12:30pm 32.3 24.0 4.2 17 14.7 NNW 37 52 20 28 1009.3 1009.3 0.0
30/12:04pm 32.1 24.7 4.8 18 14.4 NW 33 52 18 28 1009.8 1009.8 0.0
30/12:00pm 31.9 24.4 4.6 18 14.3 NW 33 50 18 27 1009.9 1009.9 0.0
30/11:41am 31.5 24.8 5.8 20 13.7 NNW 30 50 16 27 1010.2 1010.2 0.0
30/11:30am 29.7 28.2 9.3 28 11.4 N 7 15 4 8 1010.7 1010.7 0.0
30/11:00am 29.0 27.7 11.1 33 10.3 NNE 9 15 5 8 1011.4 1011.4 0.0
30/10:30am 26.7 25.7 12.4 41 8.3 ENE 9 13 5 7 1012.0 1012.0 0.0
30/10:00am 24.6 23.7 10.5 41 7.9 N 6 9 3 5 1012.7 1012.7 0.0
30/09:30am 22.5 23.3 13.6 57 5.2 N 2 7 1 4 1013.2 1013.2 0.0
30/09:00am 21.1 21.6 12.8 59 4.7 NNW 2 7 1 4 1013.5 1013.5 0.0
30/08:30am 18.0 17.3 11.3 65 3.7 W 6 9 3 5 1013.7 1013.7 0.0
30/08:00am 15.7 15.2 10.9 73 2.6 S 4 7 2 4 1013.7 1013.7 0.0
30/07:30am 13.5 13.6 10.3 81 1.7 CALM 0 0 0 0 1013.7 1013.7 0.0
30/07:00am 11.8 11.2 10.4 91 0.7 S 4 7 2 4 1013.6 1013.6 0.0
30/06:30am 10.0 10.0 9.7 98 0.2 CALM 0 0 0 0 1013.7 1013.7 0.0
30/06:08am 9.3 9.1 9.0 98 0.1 CALM 0 0 0 0 1013.6 1013.6 0.0
30/06:00am 9.0 8.7 8.5 97 0.2 CALM 0 0 0 0 1013.6 1013.6 0.0
30/05:58am 9.0 8.7 8.5 97 0.2 CALM 0 0 0 0 1013.5 1013.5 0.0
30/05:32am 9.3 9.0 8.8 97 0.2 CALM 0 0 0 0 1013.3 1013.3 0.0
30/05:30am 9.4 9.2 8.9 97 0.2 CALM 0 0 0 0 1013.2 1013.2 0.0
30/05:00am 9.5 9.3 8.9 96 0.3 CALM 0 0 0 0 1013.1 1013.1 0.0
30/04:57am 9.5 9.3 8.9 96 0.3 CALM 0 0 0 0 1013.1 1013.1 0.0
30/04:30am 9.6 9.3 8.7 94 0.4 CALM 0 0 0 0 1013.1 1013.1 0.0
30/04:00am 9.7 9.4 8.6 93 0.5 CALM 0 0 0 0 1013.0 1013.0 0.0
30/03:30am 9.9 9.5 8.2 89 0.8 CALM 0 0 0 0 1013.1 1013.1 0.0
30/03:00am 10.7 10.6 9.3 91 0.7 CALM 0 0 0 0 1013.4 1013.4 0.0
30/02:30am 10.8 10.7 9.4 91 0.7 CALM 0 0 0 0 1013.7 1013.7 0.0
30/02:00am 10.7 10.6 9.3 91 0.7 CALM 0 0 0 0 1013.9 1013.9 0.0
30/01:30am 11.4 11.4 9.7 89 0.9 CALM 0 0 0 0 1014.1 1014.1 0.0
30/01:00am 11.5 11.4 9.4 87 1.1 CALM 0 0 0 0 1014.4 1014.4 0.0
30/12:30am 12.3 11.8 9.3 82 1.5 S 2 6 1 3 1014.6 1014.6 0.0
30/12:00am 12.3 12.2 9.3 82 1.5 SW 0 4 0 2 1014.7 1014.7 0.0
 
Date/Time
EST
Tmp

°C
App
Tmp
°C
Dew
Point
°C
Rel
Hum
%
Delta-T

°C
Wind Press
QNH
hPa
Press
MSL
hPa
Rain
since
9 am
mm
Dir
 
Spd
km/h
Gust
km/h
Spd
kts
Gust
kts
29/11:30pm 12.3 10.7 8.6 78 1.8 S 7 9 4 5 1014.7 1014.7 0.0
29/11:00pm 13.2 13.1 9.6 79 1.8 CALM 0 0 0 0 1014.8 1014.8 0.0
29/10:30pm 14.0 13.9 9.4 74 2.4 CALM 0 0 0 0 1014.7 1014.7 0.0
29/10:00pm 15.4 15.6 10.6 73 2.5 CALM 0 0 0 0 1014.8 1014.8 0.0
29/09:30pm 16.3 15.5 9.5 64 3.5 S 4 7 2 4 1014.5 1014.5 0.0
29/09:00pm 16.5 16.1 9.7 64 3.6 S 2 6 1 3 1014.6 1014.6 0.0
29/08:30pm 18.2 17.2 9.0 55 4.8 ENE 4 9 2 5 1014.6 1014.6 0.0
29/08:00pm 19.0 17.9 8.6 51 5.4 E 4 6 2 3 1014.5 1014.5 0.0
29/07:30pm 21.6 20.4 6.3 37 7.8 NW 2 7 1 4 1014.1 1014.1 0.0
29/07:00pm 22.9 21.9 5.8 33 8.7 CALM 0 4 0 2 1013.7 1013.7 0.0
29/06:30pm 24.9 21.8 5.7 29 9.8 NW 11 13 6 7 1013.2 1013.2 0.0
29/06:00pm 25.6 22.6 5.8 28 10.2 NW 11 13 6 7 1012.8 1012.8 0.0
29/05:30pm 27.3 23.9 6.1 26 11.1 NW 13 19 7 10 1012.3 1012.3 0.0
29/05:00pm 28.8 24.1 5.0 22 12.3 NW 19 26 10 14 1011.8 1011.8 0.0
29/04:30pm 29.9 25.2 5.9 22 12.7 NW 20 28 11 15 1011.4 1011.4 0.0
29/04:00pm 30.6 25.3 5.1 20 13.4 NW 22 28 12 15 1011.2 1011.2 0.0
29/03:30pm 30.9 26.5 4.6 19 13.7 NNW 17 20 9 11 1011.0 1011.0 0.0
29/03:00pm 31.3 25.9 2.5 16 14.5 WSW 20 30 11 16 1010.9 1010.9 0.0
29/02:30pm 31.7 27.5 3.7 17 14.4 W 15 19 8 10 1010.9 1010.9 0.0
29/02:00pm 30.7 29.2 5.2 20 13.4 N 2 11 1 6 1011.3 1011.3 0.0
29/01:30pm 30.8 29.1 6.0 21 13.2 W 4 11 2 6 1011.7 1011.7 0.0
29/01:00pm 30.0 28.0 4.6 20 13.2 SE 4 11 2 6 1012.0 1012.0 0.0
29/12:30pm 30.2 28.0 6.1 22 12.8 WNW 7 19 4 10 1012.3 1012.3 0.0
29/12:00pm 29.3 27.2 6.7 24 12.1 S 7 11 4 6 1012.7 1012.7 0.0
29/11:30am 28.0 26.2 5.6 24 11.7 W 4 9 2 5 1013.2 1013.2 0.0
29/11:00am 27.7 26.0 7.5 28 10.9 NW 6 13 3 7 1013.5 1013.5 0.0
29/10:30am 26.5 24.8 9.8 35 9.3 N 9 13 5 7 1013.8 1013.8 0.0
29/10:00am 23.2 22.7 11.9 49 6.4 N 6 9 3 5 1014.0 1014.0 0.0
29/09:30am 20.8 21.1 10.9 53 5.4 CALM 0 0 0 0 1014.5 1014.5 0.0
29/09:00am 19.0 18.5 10.8 59 4.5 NE 4 7 2 4 1014.8 1014.8 0.0
29/08:30am 16.3 15.7 10.4 68 3.1 SSE 4 9 2 5 1014.8 1014.8 0.0
29/08:00am 14.1 13.3 11.1 82 1.6 SSE 6 9 3 5 1014.8 1014.8 0.0
29/07:30am 11.6 10.1 10.5 93 0.6 S 9 13 5 7 1014.8 1014.8 0.0
29/07:00am 9.9 9.5 9.8 99 0.1 S 2 6 1 3 1014.5 1014.5 0.0
29/06:30am 8.6 7.9 8.5 99 0.0 NNE 2 9 1 5 1014.4 1014.4 0.0
29/06:27am 8.3 7.9 8.2 99 0.0 CALM 0 0 0 0 1014.4 1014.4 0.0
29/06:14am 8.2 7.8 8.1 99 0.0 CALM 0 0 0 0 1014.2 1014.2 0.0
29/06:00am 7.4 6.8 7.3 99 0.0 CALM 0 0 0 0 1014.1 1014.1 0.0
29/05:59am 7.6 7.0 7.5 99 0.0 CALM 0 0 0 0 1014.1 1014.1 0.0
29/05:57am 7.7 7.1 7.6 99 0.0 CALM 0 0 0 0 1014.1 1014.1 0.0
29/05:55am 7.8 7.3 7.7 99 0.0 CALM 0 0 0 0 1014.1 1014.1 0.0
29/05:32am 7.7 7.1 7.6 99 0.0 CALM 0 6 0 3 1014.1 1014.1 0.0
29/05:30am 7.7 7.1 7.6 99 0.0 CALM 0 6 0 3 1014.1 1014.1 0.0
29/05:24am 7.6 7.0 7.5 99 0.0 CALM 0 7 0 4 1014.1 1014.1 0.0
29/05:17am 7.9 6.3 7.8 99 0.0 SSW 6 7 3 4 1014.0 1014.0 0.0
29/05:02am 8.0 7.5 7.9 99 0.0 CALM 0 0 0 0 1013.8 1013.8 0.0
29/05:00am 8.0 7.5 7.9 99 0.0 CALM 0 0 0 0 1013.8 1013.8 0.0
29/04:55am 7.9 7.4 7.8 99 0.0 CALM 0 0 0 0 1013.6 1013.6 0.0
29/04:50am 7.9 7.4 7.8 99 0.0 CALM 0 0 0 0 1013.7 1013.7 0.0
29/04:47am 7.9 7.4 7.8 99 0.0 CALM 0 0 0 0 1013.6 1013.6 0.0
29/04:30am 7.8 7.3 7.7 99 0.0 CALM 0 4 0 2 1013.6 1013.6 0.0
29/04:22am 7.9 6.6 7.8 99 0.0 S 4 7 2 4 1013.6 1013.6 0.0
29/04:00am 7.9 7.0 7.8 99 0.0 E 2 7 1 4 1013.6 1013.6 0.0
29/03:30am 8.4 7.3 8.3 99 0.0 N 4 7 2 4 1013.5 1013.5 0.0
29/03:27am 8.5 7.0 8.4 99 0.0 N 6 7 3 4 1013.6 1013.6 0.0
29/03:20am 8.5 7.4 8.4 99 0.0 N 4 7 2 4 1013.6 1013.6 0.0
29/03:00am 8.2 7.8 8.1 99 0.0 CALM 0 0 0 0 1013.9 1013.9 0.0
29/02:31am 8.4 8.0 8.3 99 0.0 CALM 0 0 0 0 1014.1 1014.1 0.0
29/02:30am 8.4 8.0 8.3 99 0.0 CALM 0 0 0 0 1014.1 1014.1 0.0
29/02:26am 9.0 8.8 8.9 99 0.0 CALM 0 0 0 0 1014.1 1014.1 0.0
29/02:09am 9.0 8.8 8.9 99 0.0 CALM 0 0 0 0 1014.5 1014.5 0.0
29/02:00am 8.7 8.3 8.4 98 0.1 CALM 0 0 0 0 1014.6 1014.6 0.0
29/01:51am 8.6 8.2 8.3 98 0.1 CALM 0 0 0 0 1014.8 1014.8 0.0
29/01:49am 8.9 8.6 8.6 98 0.1 CALM 0 0 0 0 1014.8 1014.8 0.0
29/01:45am 8.8 8.5 8.5 98 0.1 CALM 0 0 0 0 1014.8 1014.8 0.0
29/01:35am 8.8 8.5 8.5 98 0.1 CALM 0 0 0 0 1014.9 1014.9 0.0
29/01:30am 9.1 8.9 9.0 99 0.0 CALM 0 0 0 0 1014.9 1014.9 0.0
29/01:07am 9.3 8.4 9.2 99 0.0 S 4 7 2 4 1015.2 1015.2 0.0
29/01:00am 9.9 9.9 9.8 99 0.1 CALM 0 0 0 0 1015.3 1015.3 0.0
29/12:42am 9.1 7.5 8.6 97 0.2 SSE 7 11 4 6 1015.3 1015.3 0.0
29/12:30am 9.6 8.1 9.1 97 0.2 SE 7 11 4 6 1015.3 1015.3 0.0
29/12:14am 9.7 8.8 9.2 97 0.2 S 4 9 2 5 1015.3 1015.3 0.0
29/12:00am 9.7 8.7 8.9 95 0.4 WSW 4 9 2 5 1015.6 1015.5 0.0
 
Date/Time
EST
Tmp

°C
App
Tmp
°C
Dew
Point
°C
Rel
Hum
%
Delta-T

°C
Wind Press
QNH
hPa
Press
MSL
hPa
Rain
since
9 am
mm
Dir
 
Spd
km/h
Gust
km/h
Spd
kts
Gust
kts
28/11:30pm 11.1 10.2 10.5 96 0.3 N 6 9 3 5 1015.6 1015.5 0.0
28/11:00pm 11.4 11.6 10.6 95 0.4 CALM 0 0 0 0 1016.0 1015.9 0.0
28/10:30pm 11.8 12.0 10.5 92 0.7 CALM 0 0 0 0 1016.5 1016.4 0.0
28/10:00pm 12.1 12.2 10.2 88 1.0 CALM 0 0 0 0 1016.8 1016.7 0.0
28/09:30pm 13.1 13.3 10.5 84 1.4 CALM 0 0 0 0 1016.9 1016.8 0.0
28/09:00pm 13.6 12.6 10.4 81 1.7 W 6 7 3 4 1016.9 1016.8 0.0
28/08:30pm 15.1 14.0 10.7 75 2.3 S 7 9 4 5 1016.8 1016.7 0.0
28/08:00pm 16.0 16.2 10.7 71 2.8 CALM 0 0 0 0 1016.5 1016.4 0.0
28/07:30pm 17.0 17.4 11.1 68 3.2 CALM 0 0 0 0 1016.0 1015.9 0.0
28/07:00pm 17.6 16.7 10.7 64 3.7 S 6 9 3 5 1015.6 1015.5 0.0
28/06:30pm 18.9 17.1 10.7 59 4.4 ENE 11 19 6 10 1014.9 1014.9 0.0
28/06:00pm 20.1 17.1 10.8 55 5.1 ENE 17 24 9 13 1014.7 1014.7 0.0
28/05:30pm 22.1 18.6 10.3 47 6.5 ENE 19 28 10 15 1014.4 1014.4 0.0
28/05:00pm 24.6 20.1 5.9 30 9.6 NNE 19 24 10 13 1014.2 1014.2 0.0
28/04:30pm 25.0 20.2 5.7 29 9.9 NNE 20 28 11 15 1014.5 1014.5 0.0
28/04:00pm 25.3 20.6 6.0 29 10.0 NNE 20 28 11 15 1014.6 1014.6 0.0
28/03:30pm 25.4 20.9 7.1 31 9.6 NNE 20 32 11 17 1014.7 1014.7 0.0
28/03:00pm 25.5 21.3 7.6 32 9.5 NNE 19 30 10 16 1015.0 1015.0 0.0
28/02:30pm 25.1 20.3 7.3 32 9.4 N 22 30 12 16 1015.5 1015.4 0.0
28/02:00pm 25.2 21.9 8.2 34 9.1 N 15 24 8 13 1016.0 1015.9 0.0
28/01:30pm 25.7 22.2 8.7 34 9.2 NE 17 28 9 15 1016.6 1016.5 0.0
28/01:00pm 24.3 19.8 6.1 31 9.3 NE 19 28 10 15 1017.3 1017.2 0.0
28/12:30pm 24.1 20.5 6.8 33 9.0 NNE 15 24 8 13 1017.8 1017.7 0.0
28/12:00pm 23.2 19.2 6.5 34 8.6 NNE 17 24 9 13 1018.5 1018.4 0.0
28/11:30am 22.7 18.6 7.7 38 7.9 NNE 19 24 10 13 1019.2 1019.1 0.0
28/11:00am 21.7 18.9 8.6 43 6.9 NNE 13 22 7 12 1020.1 1020.1 0.0
28/10:30am 20.9 18.9 10.1 50 5.9 NNE 11 19 6 10 1020.6 1020.6 0.0
28/10:00am 19.2 17.5 9.9 55 5.0 N 9 15 5 8 1021.1 1021.1 0.0
28/09:30am 18.7 17.5 10.3 58 4.5 N 7 11 4 6 1021.5 1021.5 0.0
28/09:00am 16.1 15.0 9.8 66 3.3 N 6 9 3 5 1021.8 1021.8 0.0
28/08:30am 14.4 14.0 9.8 74 2.4 NNW 2 7 1 4 1022.0 1022.0 0.0
28/08:00am 11.8 11.5 8.8 82 1.5 CALM 0 0 0 0 1022.0 1022.0 0.0
28/07:30am 10.5 10.2 8.6 88 0.9 CALM 0 4 0 2 1022.0 1022.0 0.0
28/07:00am 8.6 8.1 7.8 95 0.4 CALM 0 2 0 1 1021.9 1021.9 0.0
28/06:30am 6.7 5.9 6.6 99 0.0 CALM 0 0 0 0 1022.1 1022.1 0.0
28/06:09am 6.0 5.1 5.9 99 0.0 CALM 0 0 0 0 1022.0 1022.0 0.0
28/06:00am 6.0 5.1 5.9 99 0.0 CALM 0 0 0 0 1021.9 1021.9 0.0
28/05:56am 6.0 5.1 5.9 99 0.0 CALM 0 0 0 0 1021.9 1021.9 0.0
28/05:52am 6.0 5.1 5.9 99 0.0 CALM 0 0 0 0 1021.8 1021.8 0.0
28/05:40am 5.8 4.8 5.7 99 0.0 CALM 0 0 0 0 1021.8 1021.8 0.0
28/05:30am 6.0 5.1 5.9 99 0.0 CALM 0 0 0 0 1021.8 1021.8 0.0
28/05:00am 6.2 5.3 6.1 99 0.0 CALM 0 0 0 0 1021.5 1021.5 0.0
28/04:41am 6.3 5.4 6.0 98 0.1 CALM 0 0 0 0 1021.3 1021.3 0.0
28/04:36am 6.3 5.4 6.0 98 0.1 CALM 0 0 0 0 1021.3 1021.3 0.0
28/04:30am 6.2 5.3 5.9 98 0.1 CALM 0 0 0 0 1021.3 1021.3 0.0
28/04:25am 6.2 5.3 5.9 98 0.1 CALM 0 0 0 0 1021.3 1021.3 0.0
28/04:00am 6.5 5.6 6.2 98 0.1 CALM 0 0 0 0 1021.1 1021.1 0.0
28/03:59am 6.4 5.5 6.1 98 0.1 CALM 0 0 0 0 1021.1 1021.1 0.0
28/03:54am 6.6 5.8 6.3 98 0.1 CALM 0 0 0 0 1021.1 1021.1 0.0
28/03:48am 6.7 5.9 6.4 98 0.1 CALM 0 0 0 0 1021.1 1021.1 0.0
28/03:31am 6.9 6.1 6.6 98 0.1 CALM 0 0 0 0 1021.2 1021.2 0.0
28/03:30am 6.9 6.1 6.6 98 0.1 CALM 0 0 0 0 1021.2 1021.2 0.0
28/03:00am 6.8 6.0 6.4 97 0.2 CALM 0 0 0 0 1021.4 1021.4 0.0
28/02:55am 6.8 6.0 6.4 97 0.2 CALM 0 0 0 0 1021.3 1021.3 0.0
28/02:54am 6.8 6.0 6.4 97 0.2 CALM 0 0 0 0 1021.3 1021.3 0.0
28/02:34am 7.6 7.0 7.3 98 0.1 CALM 0 0 0 0 1021.6 1021.6 0.0
28/02:32am 7.6 7.0 7.3 98 0.1 CALM 0 0 0 0 1021.6 1021.6 0.0
28/02:30am 7.5 6.9 7.2 98 0.1 CALM 0 0 0 0 1021.6 1021.6 0.0
28/02:15am 7.5 6.8 7.1 97 0.2 CALM 0 0 0 0 1021.8 1021.8 0.0
28/02:01am 7.5 6.8 7.1 97 0.2 CALM 0 0 0 0 1021.9 1021.9 0.0
28/02:00am 7.5 6.8 7.1 97 0.2 CALM 0 0 0 0 1021.9 1021.9 0.0
28/01:59am 7.5 6.8 7.1 97 0.2 CALM 0 0 0 0 1021.9 1021.9 0.0
28/01:49am 7.7 7.1 7.3 97 0.2 CALM 0 0 0 0 1021.9 1021.9 0.0
28/01:30am 7.8 7.2 7.2 96 0.3 CALM 0 0 0 0 1022.1 1022.1 0.0
28/01:00am 7.9 7.3 7.3 96 0.3 CALM 0 0 0 0 1022.2 1022.2 0.0
28/12:30am 7.8 7.1 6.9 94 0.4 CALM 0 0 0 0 1022.5 1022.5 0.0
28/12:00am 8.8 8.4 8.2 96 0.3 CALM 0 0 0 0 1022.6 1022.6 0.0
 
Date/Time
EST
Tmp

°C
App
Tmp
°C
Dew
Point
°C
Rel
Hum
%
Delta-T

°C
Wind Press
QNH
hPa
Press
MSL
hPa
Rain
since
9 am
mm
Dir
 
Spd
km/h
Gust
km/h
Spd
kts
Gust
kts
27/11:30pm 8.7 8.2 7.8 94 0.4 CALM 0 0 0 0 1023.0 1023.0 0.0
27/11:00pm 9.5 9.1 8.4 93 0.5 CALM 0 0 0 0 1022.7 1022.7 0.0
27/10:30pm 9.8 9.5 8.6 92 0.6 CALM 0 0 0 0 1022.9 1022.9 0.0
27/10:00pm 10.0 9.6 8.3 89 0.8 CALM 0 0 0 0 1022.8 1022.8 0.0
27/09:30pm 10.5 10.1 8.3 86 1.1 CALM 0 0 0 0 1022.7 1022.7 0.0
27/09:00pm 10.9 10.4 7.8 81 1.5 CALM 0 0 0 0 1022.6 1022.6 0.0

Latest Capital City Observations: Canberra | Sydney | Melbourne | Brisbane | Adelaide | Perth | Hobart | Darwin

Other Formats:

Comma delimited format used in spreadsheet applications
http://www.bom.gov.au/fwo/IDN60901/IDN60901.94755.axf

JavaScript Object Notation format (JSON) in row-major order
http://www.bom.gov.au/fwo/IDN60901/IDN60901.94755.json